Regional Weather Roundup
Issued by NWS

Home | Current Version | Previous Version | Graphics & Text | Print | Product List | Glossary On
Versions: 1 2 3 4 5 6 7 8 9 10 11 12 13 14 15 16 17 18 19 20 21 22 23 24 25 26 27 28 29 30 31 32 33 34 35 36 37 38 39 40 41 42 43 44 45 46 47 48 49 50
661
ASUS43 KTOP 221259
RWRKS

WEATHER ROUNDUP FOR KANSAS
NATIONAL WEATHER SERVICE GOODLAND KS
700 AM CST SUN JAN 22 2017

NOTE:  "FAIR" INDICATES FEW OR NO CLOUDS BELOW 12,000 FEET WITH NO
SIGNIFICANT WEATHER AND/OR OBSTRUCTIONS TO VISIBILITY.

KSZ001>006-013>018-027>032-041>047-221400-
NORTHWEST KANSAS

CITY           SKY/WX    TMP DP  RH WIND       PRES   REMARKS
GOODLAND       CLOUDY    27  25  92 NW9       29.78R
HAYS           CLEAR     33  30  88 N10       29.75R WCI  25
HILL CITY      CLEAR     31  29  92 NW7       29.76R
RUSSELL        CLEAR     33  30  88 N13       29.72R WCI  24
$$

KSZ061>065-074>080-084>089-221400-
SOUTHWEST KANSAS

CITY           SKY/WX    TMP DP  RH WIND       PRES   REMARKS
DODGE CITY     CLEAR     32  29  88 NW8       29.74R
GARDEN CITY    CLEAR     32  28  85 NW15      29.75R WCI  22
GREAT BEND     PTCLDY    37  33  85 N15       29.72R WCI  28
LIBERAL          N/A     34  27  75 NW12      29.77R WCI  25
$$

KSZ066>073-081>083-090>101-221400-
SOUTHEAST KANSAS

CITY           SKY/WX    TMP DP  RH WIND       PRES   REMARKS
CHANUTE        LGT RAIN  48  46  93 N15       29.52R
COFFEYVILLE    RAIN      49  47  93 N12       29.49R
HUTCHINSON     CLOUDY    41  37  86 N13       29.67R
MEDICINE LODGE   N/A     40  37  89 N14       29.66R WCI  32
NEWTON         CLOUDY    41  39  93 N18       29.64R
PARSONS        LGT RAIN  49  47  93 N9G17     29.50R
WICHITA INTL   CLOUDY    45  41  86 N17G28    29.61R
WICHITA JABRA  CLOUDY    44  42  93 N17       29.61R
WINFIELD       CLOUDY    46  43  89 N15       29.57R
$$

KSZ007>012-019>026-033>040-048>060-102>105-221400-
NORTHEAST KANSAS

CITY           SKY/WX    TMP DP  RH WIND       PRES   REMARKS
CONCORDIA      PTCLDY    32  31  96 NW8       29.71R
EMPORIA        CLOUDY    45  42  89 N10       29.59R
LAWRENCE       CLOUDY    45  42  89 N8        29.61R
MANHATTAN      CLOUDY    40  35  83 N9        29.66R
OLATHE IND     CLOUDY    44  43  96 N12       29.59R
OLATHE EXE     CLOUDY    44  43  96 N10       29.58R
SALINA         PTCLDY    37  34  89 NW10      29.69  WCI  30
TOPEKA BILLARD MOCLDY    44  40  85 N10       29.63R
TOPEKA FORBES  CLOUDY    46  41  82 N16G22    29.61R
$$




USA.gov is the U.S. government's official web portal to all federal, state and local government web resources and services.